Time,TemperatureF,DewpointF,PressureIn,WindDirection,WindDirectionDegrees,WindSpeedMPH,WindSpeedGustMPH,Humidity,HourlyPrecipIn,Conditions,Clouds,dailyrainin,SoftwareType,DateUTC
2013-03-13 00:01:00,24.0,15.6,30.32,WNW,294,11.5,11.5,70,0.00,CLR,CLR,0.00,WeatherDisplay:10.37,2013-03-13 05:01:00,
2013-03-13 00:06:00,23.9,15.5,30.32,West,278,9.2,9.2,70,0.00,CLR,CLR,0.00,WeatherDisplay:10.37,2013-03-13 05:06:00,
2013-03-13 00:11:00,23.9,15.5,30.32,WNW,284,6.9,6.9,70,0.00,CLR,CLR,0.00,WeatherDisplay:10.37,2013-03-13 05:11:00,
2013-03-13 00:17:00,23.8,15.4,30.33,WNW,291,10.4,10.4,70,0.00,CLR,CLR,0.00,WeatherDisplay:10.37,2013-03-13 05:17:00,
2013-03-13 00:22:00,23.8,15.1,30.33,WNW,284,5.0,5.0,69,0.00,CLR,CLR,0.00,WeatherDisplay:10.37,2013-03-13 05:22:00,
2013-03-13 00:27:00,23.8,15.1,30.33,NW,309,5.8,5.8,69,0.00,CLR,CLR,0.00,WeatherDisplay:10.37,2013-03-13 05:27:00,
2013-03-13 00:32:00,23.7,15.0,30.33,West,269,6.9,6.9,69,0.00,CLR,CLR,0.00,WeatherDisplay:10.37,2013-03-13 05:32:00,
2013-03-13 00:37:00,23.7,15.0,30.33,NW,309,13.8,13.8,69,0.00,CLR,CLR,0.00,WeatherDisplay:10.37,2013-03-13 05:37:00,
2013-03-13 00:42:00,23.6,14.9,30.33,WNW,286,9.2,9.2,69,0.00,CLR,CLR,0.00,WeatherDisplay:10.37,2013-03-13 05:42:00,
2013-03-13 00:47:00,23.6,14.9,30.33,NW,315,6.9,6.9,69,0.00,CLR,CLR,0.00,WeatherDisplay:10.37,2013-03-13 05:47:00,
2013-03-13 00:53:00,23.5,14.8,30.33,NNW,336,7.0,7.0,69,0.00,CLR,CLR,0.00,WeatherDisplay:10.37,2013-03-13 05:53:00,
2013-03-13 00:58:00,23.3,14.6,30.33,West,277,5.8,5.8,69,0.00,CLR,CLR,0.00,WeatherDisplay:10.37,2013-03-13 05:58:00,
2013-03-13 01:03:00,23.0,14.3,30.34,WNW,296,4.6,4.6,69,0.00,CLR,CLR,0.00,WeatherDisplay:10.37,2013-03-13 06:03:00,
2013-03-13 01:08:00,22.8,14.1,30.34,WNW,301,6.9,6.9,69,0.00,CLR,CLR,0.00,WeatherDisplay:10.37,2013-03-13 06:08:00,
2013-03-13 01:13:00,22.6,14.0,30.34,NW,310,3.5,3.5,69,0.00,CLR,CLR,0.00,WeatherDisplay:10.37,2013-03-13 06:13:00,
2013-03-13 01:19:00,22.5,13.9,30.34,WNW,296,9.2,9.2,69,0.00,CLR,CLR,0.00,WeatherDisplay:10.37,2013-03-13 06:19:00,
2013-03-13 01:24:00,22.3,13.7,30.34,West,277,10.4,10.4,69,0.00,CLR,CLR,0.00,WeatherDisplay:10.37,2013-03-13 06:24:00,
2013-03-13 01:29:00,22.2,13.9,30.34,WNW,296,5.8,5.8,70,0.00,CLR,CLR,0.00,WeatherDisplay:10.37,2013-03-13 06:29:00,
2013-03-13 01:34:00,22.1,13.8,30.34,WNW,284,5.8,5.8,70,0.00,CLR,CLR,0.00,WeatherDisplay:10.37,2013-03-13 06:34:00,
2013-03-13 01:39:00,22.0,13.7,30.35,NNW,330,5.8,5.8,70,0.00,CLR,CLR,0.00,WeatherDisplay:10.37,2013-03-13 06:39:00,
2013-03-13 01:45:00,21.9,13.6,30.35,West,276,10.4,10.4,70,0.00,CLR,CLR,0.00,WeatherDisplay:10.37,2013-03-13 06:45:00,
2013-03-13 01:50:00,21.8,13.5,30.35,West,281,4.6,4.6,70,0.00,CLR,CLR,0.00,WeatherDisplay:10.37,2013-03-13 06:50:00,
2013-03-13 01:55:00,21.8,13.5,30.35,North,10,3.5,3.5,70,0.00,CLR,CLR,0.00,WeatherDisplay:10.37,2013-03-13 06:55:00,
2013-03-13 02:00:00,21.7,13.4,30.35,NW,321,3.5,3.5,70,0.00,CLR,CLR,0.00,WeatherDisplay:10.37,2013-03-13 07:00:00,
2013-03-13 02:05:00,21.6,13.3,30.35,West,276,4.6,4.6,70,0.00,CLR,CLR,0.00,WeatherDisplay:10.37,2013-03-13 07:05:00,
2013-03-13 02:10:00,21.5,13.2,30.36,WNW,288,5.8,5.8,70,0.00,CLR,CLR,0.00,WeatherDisplay:10.37,2013-03-13 07:10:00,
2013-03-13 02:15:00,21.5,13.2,30.36,WNW,294,4.6,4.6,70,0.00,CLR,CLR,0.00,WeatherDisplay:10.37,2013-03-13 07:15:00,
2013-03-13 02:21:00,21.4,13.1,30.36,WNW,290,7.0,7.0,70,0.00,CLR,CLR,0.00,WeatherDisplay:10.37,2013-03-13 07:21:00,
2013-03-13 02:26:00,21.3,13.0,30.37,WNW,295,4.0,4.0,70,0.00,CLR,CLR,0.00,WeatherDisplay:10.37,2013-03-13 07:26:00,
2013-03-13 02:32:00,21.2,12.9,30.37,WNW,288,10.4,10.4,70,0.00,CLR,CLR,0.00,WeatherDisplay:10.37,2013-03-13 07:32:00,
2013-03-13 02:37:00,21.1,12.8,30.37,WNW,295,4.6,4.6,70,0.00,CLR,CLR,0.00,WeatherDisplay:10.37,2013-03-13 07:37:00,
2013-03-13 02:42:00,21.1,12.8,30.37,WNW,299,9.2,9.2,70,0.00,CLR,CLR,0.00,WeatherDisplay:10.37,2013-03-13 07:42:00,
2013-03-13 02:47:00,21.0,12.7,30.37,WNW,284,4.6,4.6,70,0.00,CLR,CLR,0.00,WeatherDisplay:10.37,2013-03-13 07:47:00,
2013-03-13 02:52:00,20.9,12.6,30.37,WNW,289,4.6,4.6,70,0.00,CLR,CLR,0.00,WeatherDisplay:10.37,2013-03-13 07:52:00,
2013-03-13 02:57:00,20.8,12.9,30.38,WNW,286,5.0,5.0,71,0.00,CLR,CLR,0.00,WeatherDisplay:10.37,2013-03-13 07:57:00,
2013-03-13 03:02:00,20.6,12.7,30.38,WNW,302,4.6,4.6,71,0.00,CLR,CLR,0.00,WeatherDisplay:10.37,2013-03-13 08:02:00,
2013-03-13 03:08:00,20.6,12.7,30.38,WNW,289,3.5,3.5,71,0.00,CLR,CLR,0.00,WeatherDisplay:10.37,2013-03-13 08:08:00,
2013-03-13 03:13:00,20.4,12.5,30.38,WNW,292,4.6,4.6,71,0.00,CLR,CLR,0.00,WeatherDisplay:10.37,2013-03-13 08:13:00,
2013-03-13 03:18:00,20.3,12.4,30.38,WNW,286,6.0,6.0,71,0.00,CLR,CLR,0.00,WeatherDisplay:10.37,2013-03-13 08:18:00,
2013-03-13 03:24:00,20.3,12.4,30.38,NW,322,3.5,3.5,71,0.00,CLR,CLR,0.00,WeatherDisplay:10.37,2013-03-13 08:24:00,
2013-03-13 03:29:00,20.3,12.4,30.38,WNW,295,4.6,4.6,71,0.00,CLR,CLR,0.00,WeatherDisplay:10.37,2013-03-13 08:29:00,
2013-03-13 03:34:00,20.3,12.4,30.38,WSW,254,11.5,11.5,71,0.00,CLR,CLR,0.00,WeatherDisplay:10.37,2013-03-13 08:34:00,
2013-03-13 03:39:00,20.2,12.3,30.38,WNW,301,5.8,5.8,71,0.00,CLR,CLR,0.00,WeatherDisplay:10.37,2013-03-13 08:39:00,
2013-03-13 03:44:00,20.1,12.2,30.38,WNW,288,5.8,5.8,71,0.00,CLR,CLR,0.00,WeatherDisplay:10.37,2013-03-13 08:44:00,
2013-03-13 03:49:00,20.0,12.1,30.39,West,270,6.9,6.9,71,0.00,CLR,CLR,0.00,WeatherDisplay:10.37,2013-03-13 08:49:00,
2013-03-13 03:54:00,19.8,11.9,30.39,WNW,296,7.0,7.0,71,0.00,CLR,CLR,0.00,WeatherDisplay:10.37,2013-03-13 08:54:00,
2013-03-13 03:59:00,19.7,11.8,30.39,WNW,287,4.0,4.0,71,0.00,CLR,CLR,0.00,WeatherDisplay:10.37,2013-03-13 08:59:00,
2013-03-13 04:04:00,19.7,11.8,30.39,WNW,290,5.8,5.8,71,0.00,CLR,CLR,0.00,WeatherDisplay:10.37,2013-03-13 09:04:00,
2013-03-13 04:09:00,19.7,11.8,30.39,NW,304,6.9,6.9,71,0.00,CLR,CLR,0.00,WeatherDisplay:10.37,2013-03-13 09:09:00,
2013-03-13 04:14:00,19.5,11.6,30.39,WNW,291,5.0,5.0,71,0.00,CLR,CLR,0.00,WeatherDisplay:10.37,2013-03-13 09:14:00,
2013-03-13 04:20:00,19.4,11.5,30.39,WNW,286,1.2,0.0,71,0.00,CLR,CLR,0.00,WeatherDisplay:10.37,2013-03-13 09:20:00,
2013-03-13 04:25:00,19.3,11.4,30.39,WNW,298,3.5,3.5,71,0.00,CLR,CLR,0.00,WeatherDisplay:10.37,2013-03-13 09:25:00,
2013-03-13 04:30:00,19.3,11.4,30.39,NW,311,5.8,5.8,71,0.00,CLR,CLR,0.00,WeatherDisplay:10.37,2013-03-13 09:30:00,
2013-03-13 04:35:00,19.2,11.3,30.39,NW,316,4.6,4.6,71,0.00,CLR,CLR,0.00,WeatherDisplay:10.37,2013-03-13 09:35:00,
2013-03-13 04:40:00,19.1,11.2,30.40,NW,306,3.5,3.5,71,0.00,CLR,CLR,0.00,WeatherDisplay:10.37,2013-03-13 09:40:00,
2013-03-13 04:45:00,19.0,11.1,30.40,WNW,295,3.5,3.5,71,0.00,CLR,CLR,0.00,WeatherDisplay:10.37,2013-03-13 09:45:00,
2013-03-13 04:51:00,18.9,11.4,30.40,West,281,5.0,5.0,72,0.00,CLR,CLR,0.00,WeatherDisplay:10.37,2013-03-13 09:51:00,
2013-03-13 04:56:00,18.9,11.4,30.40,WNW,292,4.6,4.6,72,0.00,CLR,CLR,0.00,WeatherDisplay:10.37,2013-03-13 09:56:00,
2013-03-13 05:01:00,18.8,11.3,30.40,WNW,283,4.6,4.6,72,0.00,CLR,CLR,0.00,WeatherDisplay:10.37,2013-03-13 10:01:00,
2013-03-13 05:07:00,18.8,11.3,30.40,NNW,328,3.5,3.5,72,0.00,CLR,CLR,0.00,WeatherDisplay:10.37,2013-03-13 10:07:00,
2013-03-13 05:12:00,18.8,11.3,30.40,WNW,288,3.5,3.5,72,0.00,CLR,CLR,0.00,WeatherDisplay:10.37,2013-03-13 10:12:00,
2013-03-13 05:17:00,18.6,11.1,30.41,WNW,303,1.2,1.6,72,0.00,CLR,CLR,0.00,WeatherDisplay:10.37,2013-03-13 10:17:00,
2013-03-13 05:22:00,18.6,11.1,30.41,WNW,291,5.8,5.8,72,0.00,CLR,CLR,0.00,WeatherDisplay:10.37,2013-03-13 10:22:00,
2013-03-13 05:27:00,18.5,11.0,30.41,NW,304,6.9,6.9,72,0.00,CLR,CLR,0.00,WeatherDisplay:10.37,2013-03-13 10:27:00,
2013-03-13 05:33:00,18.4,10.9,30.42,WNW,299,6.9,6.9,72,0.00,CLR,CLR,0.00,WeatherDisplay:10.37,2013-03-13 10:33:00,
2013-03-13 05:38:00,18.3,10.8,30.42,WNW,292,5.0,5.0,72,0.00,CLR,CLR,0.00,WeatherDisplay:10.37,2013-03-13 10:38:00,
2013-03-13 05:43:00,18.3,11.1,30.42,NW,321,5.8,5.8,73,0.00,CLR,CLR,0.00,WeatherDisplay:10.37,2013-03-13 10:43:00,
2013-03-13 05:48:00,18.3,10.8,30.42,WNW,301,3.5,3.5,72,0.00,CLR,CLR,0.00,WeatherDisplay:10.37,2013-03-13 10:48:00,
2013-03-13 05:53:00,18.1,10.6,30.42,NW,321,3.5,3.5,72,0.00,CLR,CLR,0.00,WeatherDisplay:10.37,2013-03-13 10:53:00,
2013-03-13 05:59:00,18.0,10.5,30.43,NNW,328,3.5,3.5,72,0.00,CLR,CLR,0.00,WeatherDisplay:10.37,2013-03-13 10:59:00,
2013-03-13 06:04:00,17.9,10.7,30.43,WNW,288,3.5,3.5,73,0.00,CLR,CLR,0.00,WeatherDisplay:10.37,2013-03-13 11:04:00,
2013-03-13 06:09:00,17.8,10.6,30.43,WNW,298,3.5,3.5,73,0.00,CLR,CLR,0.00,WeatherDisplay:10.37,2013-03-13 11:09:00,
2013-03-13 06:14:00,17.7,10.5,30.44,WNW,290,3.5,3.5,73,0.00,CLR,CLR,0.00,WeatherDisplay:10.37,2013-03-13 11:14:00,
2013-03-13 06:20:00,17.6,10.4,30.44,WNW,292,9.2,9.2,73,0.00,CLR,CLR,0.00,WeatherDisplay:10.37,2013-03-13 11:20:00,
2013-03-13 06:25:00,17.6,10.4,30.44,NW,310,3.5,3.5,73,0.00,CLR,CLR,0.00,WeatherDisplay:10.37,2013-03-13 11:25:00,
2013-03-13 06:30:00,17.5,10.3,30.43,WNW,301,4.6,4.6,73,0.00,CLR,CLR,0.00,WeatherDisplay:10.37,2013-03-13 11:30:00,
2013-03-13 06:35:00,17.5,10.3,30.44,NW,304,2.3,2.3,73,0.00,CLR,CLR,0.00,WeatherDisplay:10.37,2013-03-13 11:35:00,
2013-03-13 06:40:00,17.3,10.1,30.44,NW,304,3.5,3.5,73,0.00,CLR,CLR,0.00,WeatherDisplay:10.37,2013-03-13 11:40:00,
2013-03-13 06:45:00,17.2,12.4,30.44,WNW,291,3.5,3.5,81,0.00,CLR,CLR,0.00,WeatherDisplay:10.37,2013-03-13 11:45:00,
2013-03-13 06:50:00,17.1,9.9,30.44,WNW,292,2.3,2.3,73,0.00,CLR,CLR,0.00,WeatherDisplay:10.37,2013-03-13 11:50:00,
2013-03-13 06:56:00,17.0,9.8,30.44,WNW,296,3.5,3.5,73,0.00,CLR,CLR,0.00,WeatherDisplay:10.37,2013-03-13 11:56:00,
2013-03-13 07:01:00,16.8,9.6,30.44,WNW,293,3.5,3.5,73,0.00,CLR,CLR,0.00,WeatherDisplay:10.37,2013-03-13 12:01:00,
2013-03-13 07:06:00,16.7,9.8,30.45,West,278,6.9,6.9,74,0.00,CLR,CLR,0.00,WeatherDisplay:10.37,2013-03-13 12:06:00,
2013-03-13 07:11:00,16.6,9.8,30.45,West,281,3.0,3.0,74,0.00,CLR,CLR,0.00,WeatherDisplay:10.37,2013-03-13 12:11:00,
2013-03-13 07:16:00,16.4,9.6,30.45,WNW,282,0.0,0.0,74,0.00,CLR,CLR,0.00,WeatherDisplay:10.37,2013-03-13 12:16:00,
2013-03-13 07:22:00,16.2,9.4,30.45,WNW,282,1.2,1.2,74,0.00,CLR,CLR,0.00,WeatherDisplay:10.37,2013-03-13 12:22:00,
2013-03-13 07:27:00,16.2,9.4,30.45,WNW,289,3.5,3.5,74,0.00,CLR,CLR,0.00,WeatherDisplay:10.37,2013-03-13 12:27:00,
2013-03-13 07:32:00,16.2,9.4,30.45,WNW,286,3.5,3.5,74,0.00,CLR,CLR,0.00,WeatherDisplay:10.37,2013-03-13 12:32:00,
2013-03-13 07:37:00,16.2,9.4,30.45,WNW,286,0.0,0.6,74,0.00,CLR,CLR,0.00,WeatherDisplay:10.37,2013-03-13 12:37:00,
2013-03-13 07:42:00,16.2,9.4,30.45,WNW,282,3.5,3.5,74,0.00,CLR,CLR,0.00,WeatherDisplay:10.37,2013-03-13 12:42:00,
2013-03-13 07:47:00,16.4,9.6,30.45,NW,311,3.5,3.5,74,0.00,CLR,CLR,0.00,WeatherDisplay:10.37,2013-03-13 12:47:00,
2013-03-13 07:52:00,16.5,9.7,30.45,WNW,295,3.5,3.5,74,0.00,CLR,CLR,0.00,WeatherDisplay:10.37,2013-03-13 12:52:00,
2013-03-13 07:57:00,16.6,9.8,30.46,WNW,295,3.5,3.5,74,0.00,CLR,CLR,0.00,WeatherDisplay:10.37,2013-03-13 12:57:00,
2013-03-13 08:02:00,16.7,9.8,30.46,WNW,287,3.5,3.5,74,0.00,CLR,CLR,0.00,WeatherDisplay:10.37,2013-03-13 13:02:00,
2013-03-13 08:08:00,16.8,9.9,30.46,WNW,290,3.5,3.5,74,0.00,CLR,CLR,0.00,WeatherDisplay:10.37,2013-03-13 13:08:00,
2013-03-13 08:13:00,16.9,10.0,30.46,WNW,290,3.5,3.5,74,0.00,CLR,CLR,0.00,WeatherDisplay:10.37,2013-03-13 13:13:00,
2013-03-13 08:18:00,17.0,9.8,30.46,North,350,2.3,2.3,73,0.00,CLR,CLR,0.00,WeatherDisplay:10.37,2013-03-13 13:18:00,
2013-03-13 08:23:00,17.0,9.8,30.47,WNW,296,4.0,4.0,73,0.00,CLR,CLR,0.00,WeatherDisplay:10.37,2013-03-13 13:23:00,
2013-03-13 08:28:00,17.1,9.9,30.47,WNW,285,4.6,4.6,73,0.00,CLR,CLR,0.00,WeatherDisplay:10.37,2013-03-13 13:28:00,
2013-03-13 08:34:00,17.3,10.1,30.47,WNW,297,3.5,3.5,73,0.00,CLR,CLR,0.00,WeatherDisplay:10.37,2013-03-13 13:34:00,
2013-03-13 08:39:00,17.5,10.3,30.47,WNW,298,3.5,3.5,73,0.00,CLR,CLR,0.00,WeatherDisplay:10.37,2013-03-13 13:39:00,
2013-03-13 08:44:00,17.7,10.5,30.47,WNW,292,4.6,4.6,73,0.00,CLR,CLR,0.00,WeatherDisplay:10.37,2013-03-13 13:44:00,
2013-03-13 08:49:00,17.9,10.4,30.48,NW,324,3.5,3.5,72,0.00,CLR,CLR,0.00,WeatherDisplay:10.37,2013-03-13 13:49:00,
2013-03-13 08:54:00,18.1,10.6,30.48,NW,313,4.0,4.0,72,0.00,CLR,CLR,0.00,WeatherDisplay:10.37,2013-03-13 13:54:00,
2013-03-13 09:00:00,18.3,10.8,30.49,West,278,3.5,3.5,72,0.00,CLR,CLR,0.00,WeatherDisplay:10.37,2013-03-13 14:00:00,
2013-03-13 09:05:00,18.6,11.1,30.48,WNW,302,3.5,3.5,72,0.00,CLR,CLR,0.00,WeatherDisplay:10.37,2013-03-13 14:05:00,
2013-03-13 09:10:00,18.8,11.3,30.48,NW,304,5.8,5.8,72,0.00,CLR,CLR,0.00,WeatherDisplay:10.37,2013-03-13 14:10:00,
2013-03-13 09:15:00,19.1,11.2,30.49,NNW,330,4.6,4.6,71,0.00,CLR,CLR,0.00,WeatherDisplay:10.37,2013-03-13 14:15:00,
2013-03-13 09:20:00,19.2,11.3,30.49,WNW,302,6.9,6.9,71,0.00,CLR,CLR,0.00,WeatherDisplay:10.37,2013-03-13 14:20:00,
2013-03-13 09:25:00,19.3,11.4,30.49,WNW,294,5.8,5.8,71,0.00,CLR,CLR,0.00,WeatherDisplay:10.37,2013-03-13 14:25:00,
2013-03-13 09:32:00,19.5,11.6,30.50,West,270,7.0,7.0,71,0.00,CLR,CLR,0.00,WeatherDisplay:10.37,2013-03-13 14:32:00,
2013-03-13 09:37:00,19.7,11.8,30.50,NW,325,4.6,4.6,71,0.00,CLR,CLR,0.00,WeatherDisplay:10.37,2013-03-13 14:37:00,
2013-03-13 09:42:00,19.7,11.8,30.50,WNW,283,5.8,5.8,71,0.00,CLR,CLR,0.00,WeatherDisplay:10.37,2013-03-13 14:42:00,
2013-03-13 09:48:00,19.9,12.0,30.50,WNW,297,3.5,3.5,71,0.00,CLR,CLR,0.00,WeatherDisplay:10.37,2013-03-13 14:48:00,
2013-03-13 09:53:00,20.0,11.8,30.50,West,272,4.6,4.6,70,0.00,CLR,CLR,0.00,WeatherDisplay:10.37,2013-03-13 14:53:00,
2013-03-13 09:58:00,20.3,12.1,30.51,WNW,299,6.9,6.9,70,0.00,CLR,CLR,0.00,WeatherDisplay:10.37,2013-03-13 14:58:00,
2013-03-13 10:03:00,20.5,12.3,30.50,WNW,294,4.6,4.6,70,0.00,CLR,CLR,0.00,WeatherDisplay:10.37,2013-03-13 15:03:00,
2013-03-13 10:08:00,21.0,12.7,30.51,NNW,329,4.0,4.0,70,0.00,CLR,CLR,0.00,WeatherDisplay:10.37,2013-03-13 15:08:00,
2013-03-13 10:13:00,21.5,13.2,30.51,WNW,303,2.0,2.0,70,0.00,CLR,CLR,0.00,WeatherDisplay:10.37,2013-03-13 15:13:00,
2013-03-13 10:18:00,21.7,12.8,30.51,NW,309,6.9,6.9,68,0.00,CLR,CLR,0.00,WeatherDisplay:10.37,2013-03-13 15:18:00,
2013-03-13 10:23:00,22.2,13.6,30.52,North,350,4.6,4.6,69,0.00,CLR,CLR,0.00,WeatherDisplay:10.37,2013-03-13 15:23:00,
2013-03-13 10:28:00,23.0,13.7,30.52,WNW,299,4.6,4.6,67,0.00,CLR,CLR,0.00,WeatherDisplay:10.37,2013-03-13 15:28:00,
2013-03-13 10:34:00,23.5,14.1,30.52,North,11,4.6,4.6,67,0.00,CLR,CLR,0.00,WeatherDisplay:10.37,2013-03-13 15:34:00,
2013-03-13 10:39:00,23.6,13.9,30.52,WNW,302,5.8,5.8,66,0.00,CLR,CLR,0.00,WeatherDisplay:10.37,2013-03-13 15:39:00,
2013-03-13 10:44:00,23.4,13.7,30.52,NW,313,4.6,4.6,66,0.00,CLR,CLR,0.00,WeatherDisplay:10.37,2013-03-13 15:44:00,
2013-03-13 10:49:00,23.7,14.0,30.52,North,355,3.5,3.5,66,0.00,CLR,CLR,0.00,WeatherDisplay:10.37,2013-03-13 15:49:00,
2013-03-13 10:54:00,23.9,14.2,30.52,WNW,286,6.9,6.9,66,0.00,CLR,CLR,0.00,WeatherDisplay:10.37,2013-03-13 15:54:00,
2013-03-13 10:59:00,24.1,14.4,30.52,NW,305,11.5,11.5,66,0.00,CLR,CLR,0.00,WeatherDisplay:10.37,2013-03-13 15:59:00,
2013-03-13 11:05:00,24.4,14.3,30.52,NNE,17,6.9,6.9,65,0.00,CLR,CLR,0.00,WeatherDisplay:10.37,2013-03-13 16:05:00,
2013-03-13 11:10:00,24.7,14.6,30.52,NNE,17,5.8,5.8,65,0.00,CLR,CLR,0.00,WeatherDisplay:10.37,2013-03-13 16:10:00,
2013-03-13 11:15:00,24.7,14.2,30.52,NW,322,9.2,9.2,64,0.00,CLR,CLR,0.00,WeatherDisplay:10.37,2013-03-13 16:15:00,
2013-03-13 11:20:00,24.7,14.2,30.52,NNE,23,3.5,3.5,64,0.00,CLR,CLR,0.00,WeatherDisplay:10.37,2013-03-13 16:20:00,
2013-03-13 11:25:00,25.0,14.9,30.52,NNE,13,2.3,2.3,65,0.00,CLR,CLR,0.00,WeatherDisplay:10.37,2013-03-13 16:25:00,
2013-03-13 11:31:00,25.4,14.9,30.52,NNE,27,6.0,6.0,64,0.00,CLR,CLR,0.00,WeatherDisplay:10.37,2013-03-13 16:31:00,
2013-03-13 11:36:00,26.0,15.5,30.52,NW,307,6.9,6.9,64,0.00,CLR,CLR,0.00,WeatherDisplay:10.37,2013-03-13 16:36:00,
2013-03-13 11:41:00,25.8,15.6,30.52,WNW,284,2.3,2.3,65,0.00,CLR,CLR,0.00,WeatherDisplay:10.37,2013-03-13 16:41:00,
2013-03-13 11:46:00,26.1,15.9,30.52,NNW,347,1.2,1.2,65,0.00,CLR,CLR,0.00,WeatherDisplay:10.37,2013-03-13 16:46:00,
2013-03-13 11:52:00,26.0,14.8,30.52,West,278,5.8,5.8,62,0.00,CLR,CLR,0.00,WeatherDisplay:10.37,2013-03-13 16:52:00,
2013-03-13 11:57:00,25.3,14.5,30.53,WNW,284,5.8,5.8,63,0.00,CLR,CLR,0.00,WeatherDisplay:10.37,2013-03-13 16:57:00,
2013-03-13 12:02:00,25.1,14.6,30.53,NW,318,9.2,9.2,64,0.00,CLR,CLR,0.00,WeatherDisplay:10.37,2013-03-13 17:02:00,
2013-03-13 12:07:00,25.2,14.7,30.52,WNW,292,4.6,4.6,64,0.00,CLR,CLR,0.00,WeatherDisplay:10.37,2013-03-13 17:07:00,
2013-03-13 12:12:00,25.0,14.5,30.52,WSW,248,4.6,4.6,64,0.00,CLR,CLR,0.00,WeatherDisplay:10.37,2013-03-13 17:12:00,
2013-03-13 12:17:00,25.1,14.6,30.52,NNW,327,3.5,3.5,64,0.00,CLR,CLR,0.00,WeatherDisplay:10.37,2013-03-13 17:17:00,
2013-03-13 12:22:00,25.2,14.7,30.52,WNW,289,4.0,4.0,64,0.00,CLR,CLR,0.00,WeatherDisplay:10.37,2013-03-13 17:22:00,
2013-03-13 12:28:00,25.3,14.8,30.52,West,271,4.0,4.0,64,0.00,CLR,CLR,0.00,WeatherDisplay:10.37,2013-03-13 17:28:00,
2013-03-13 12:33:00,25.5,14.6,30.52,West,273,3.5,3.5,63,0.00,CLR,CLR,0.00,WeatherDisplay:10.37,2013-03-13 17:33:00,
2013-03-13 12:38:00,25.6,14.7,30.53,West,276,6.9,6.9,63,0.00,CLR,CLR,0.00,WeatherDisplay:10.37,2013-03-13 17:38:00,
2013-03-13 12:43:00,25.3,14.8,30.53,WNW,289,4.6,4.6,64,0.00,CLR,CLR,0.00,WeatherDisplay:10.37,2013-03-13 17:43:00,
2013-03-13 12:48:00,25.8,15.6,30.53,NW,312,5.8,5.8,65,0.00,CLR,CLR,0.00,WeatherDisplay:10.37,2013-03-13 17:48:00,
2013-03-13 12:54:00,25.7,15.6,30.53,NNW,345,3.5,3.5,65,0.00,CLR,CLR,0.00,WeatherDisplay:10.37,2013-03-13 17:54:00,
2013-03-13 12:59:00,26.2,16.4,30.53,NNW,343,4.6,4.6,66,0.00,OVC,OVC,0.00,WeatherDisplay:10.37,2013-03-13 17:59:00,
2013-03-13 13:04:00,26.4,16.2,30.53,WNW,293,4.6,4.6,65,0.00,OVC,OVC,0.00,WeatherDisplay:10.37,2013-03-13 18:04:00,
2013-03-13 13:09:00,26.5,16.0,30.53,WNW,302,4.6,4.6,64,0.00,OVC,OVC,0.00,WeatherDisplay:10.37,2013-03-13 18:09:00,
2013-03-13 13:14:00,26.5,15.6,30.53,WNW,294,3.0,3.0,63,0.00,OVC,OVC,0.00,WeatherDisplay:10.37,2013-03-13 18:14:00,
2013-03-13 13:19:00,26.0,15.1,30.52,NW,304,3.5,3.5,63,0.00,OVC,OVC,0.00,WeatherDisplay:10.37,2013-03-13 18:19:00,
2013-03-13 13:24:00,26.4,15.9,30.52,WNW,288,4.6,4.6,64,0.00,OVC,OVC,0.00,WeatherDisplay:10.37,2013-03-13 18:24:00,
2013-03-13 13:30:00,26.7,15.8,30.52,West,280,3.5,3.5,63,0.00,OVC,OVC,0.00,WeatherDisplay:10.37,2013-03-13 18:30:00,
2013-03-13 13:35:00,27.0,15.7,30.52,West,279,3.5,3.5,62,0.00,OVC,OVC,0.00,WeatherDisplay:10.37,2013-03-13 18:35:00,
2013-03-13 13:40:00,27.2,15.5,30.52,WNW,295,3.5,3.5,61,0.00,OVC,OVC,0.00,WeatherDisplay:10.37,2013-03-13 18:40:00,
2013-03-13 13:45:00,27.1,15.8,30.52,WNW,284,5.8,5.8,62,0.00,OVC,OVC,0.00,WeatherDisplay:10.37,2013-03-13 18:45:00,
2013-03-13 13:50:00,27.1,15.8,30.52,WNW,284,3.5,3.5,62,0.00,OVC,OVC,0.00,WeatherDisplay:10.37,2013-03-13 18:50:00,
2013-03-13 13:55:00,27.5,16.5,30.51,West,275,5.8,5.8,63,0.00,OVC,OVC,0.00,WeatherDisplay:10.37,2013-03-13 18:55:00,
2013-03-13 14:01:00,27.7,16.0,30.52,WNW,296,3.5,3.5,61,0.00,OVC,OVC,0.00,WeatherDisplay:10.37,2013-03-13 19:01:00,
2013-03-13 14:06:00,27.8,16.1,30.51,West,274,5.8,5.8,61,0.00,OVC,OVC,0.00,WeatherDisplay:10.37,2013-03-13 19:06:00,
2013-03-13 14:11:00,28.1,16.0,30.51,WNW,287,3.5,3.5,60,0.00,OVC,OVC,0.00,WeatherDisplay:10.37,2013-03-13 19:11:00,
2013-03-13 14:16:00,28.7,16.9,30.51,WNW,288,1.2,1.2,61,0.00,OVC,OVC,0.00,WeatherDisplay:10.37,2013-03-13 19:16:00,
2013-03-13 14:22:00,29.6,17.4,30.50,West,281,5.8,5.8,60,0.00,OVC,OVC,0.00,WeatherDisplay:10.37,2013-03-13 19:22:00,
2013-03-13 14:27:00,29.7,17.1,30.50,WNW,284,3.5,3.5,59,0.00,OVC,OVC,0.00,WeatherDisplay:10.37,2013-03-13 19:27:00,
2013-03-13 14:32:00,29.8,16.8,30.50,WNW,285,1.2,0.0,58,0.00,OVC,OVC,0.00,WeatherDisplay:10.37,2013-03-13 19:32:00,
2013-03-13 14:37:00,30.4,17.0,30.50,West,278,3.5,3.5,57,0.00,OVC,OVC,0.00,WeatherDisplay:10.37,2013-03-13 19:37:00,
2013-03-13 14:42:00,30.9,17.0,30.49,West,271,3.5,3.5,56,0.00,OVC,OVC,0.00,WeatherDisplay:10.37,2013-03-13 19:42:00,
2013-03-13 14:48:00,30.8,16.1,30.49,SW,235,4.6,4.6,54,0.00,OVC,OVC,0.00,WeatherDisplay:10.37,2013-03-13 19:48:00,
2013-03-13 14:53:00,31.4,16.7,30.49,WNW,295,6.9,6.9,54,0.00,OVC,OVC,0.00,WeatherDisplay:10.37,2013-03-13 19:53:00,
2013-03-13 14:58:00,31.7,14.7,30.49,West,276,3.5,3.5,49,0.00,OVC,OVC,0.00,WeatherDisplay:10.37,2013-03-13 19:58:00,
2013-03-13 15:04:00,30.8,13.9,30.49,West,267,3.5,3.5,49,0.00,OVC,OVC,0.00,WeatherDisplay:10.37,2013-03-13 20:04:00,
2013-03-13 15:09:00,30.8,15.2,30.49,SW,229,2.3,3.0,52,0.00,OVC,OVC,0.00,WeatherDisplay:10.37,2013-03-13 20:09:00,
2013-03-13 15:14:00,30.8,15.2,30.49,West,275,3.5,3.5,52,0.00,OVC,OVC,0.00,WeatherDisplay:10.37,2013-03-13 20:14:00,
2013-03-13 15:19:00,31.2,16.0,30.48,West,275,0.0,0.0,53,0.00,OVC,OVC,0.00,WeatherDisplay:10.37,2013-03-13 20:19:00,
2013-03-13 15:25:00,31.7,15.6,30.48,West,277,5.0,5.0,51,0.00,OVC,OVC,0.00,WeatherDisplay:10.37,2013-03-13 20:25:00,
2013-03-13 15:30:00,30.9,13.5,30.48,WNW,283,4.6,4.6,48,0.00,OVC,OVC,0.00,WeatherDisplay:10.37,2013-03-13 20:30:00,
2013-03-13 15:35:00,30.7,13.3,30.49,WNW,284,3.5,3.5,48,0.00,OVC,OVC,0.00,WeatherDisplay:10.37,2013-03-13 20:35:00,
2013-03-13 15:40:00,30.7,13.8,30.48,West,276,3.5,3.5,49,0.00,OVC,OVC,0.00,WeatherDisplay:10.37,2013-03-13 20:40:00,
2013-03-13 15:45:00,31.3,14.3,30.48,West,273,4.0,4.0,49,0.00,OVC,OVC,0.00,WeatherDisplay:10.37,2013-03-13 20:45:00,
2013-03-13 15:50:00,31.1,13.7,30.48,West,277,1.2,0.0,48,0.00,OVC,OVC,0.00,WeatherDisplay:10.37,2013-03-13 20:50:00,
2013-03-13 15:55:00,31.1,11.7,30.48,WNW,290,3.5,3.5,44,0.00,OVC,OVC,0.00,WeatherDisplay:10.37,2013-03-13 20:55:00,
2013-03-13 16:01:00,31.1,11.7,30.49,West,273,3.5,3.5,44,0.00,OVC,OVC,0.00,WeatherDisplay:10.37,2013-03-13 21:01:00,
2013-03-13 16:06:00,31.7,13.3,30.48,West,277,3.5,3.5,46,0.00,OVC,OVC,0.00,WeatherDisplay:10.37,2013-03-13 21:06:00,
2013-03-13 16:11:00,31.7,14.2,30.48,WNW,283,3.5,3.5,48,0.00,OVC,OVC,0.00,WeatherDisplay:10.37,2013-03-13 21:11:00,
2013-03-13 16:16:00,31.8,13.8,30.48,West,280,2.3,2.3,47,0.00,OVC,OVC,0.00,WeatherDisplay:10.37,2013-03-13 21:16:00,
2013-03-13 16:21:00,32.3,15.7,30.47,WNW,290,3.5,3.5,50,0.00,OVC,OVC,0.00,WeatherDisplay:10.37,2013-03-13 21:21:00,
2013-03-13 16:27:00,32.6,16.0,30.47,NNW,340,1.2,1.2,50,0.00,OVC,OVC,0.00,WeatherDisplay:10.37,2013-03-13 21:27:00,
2013-03-13 16:32:00,32.9,15.8,30.47,NNW,336,3.5,3.5,49,0.00,OVC,OVC,0.00,WeatherDisplay:10.37,2013-03-13 21:32:00,
2013-03-13 16:37:00,33.3,16.2,30.46,NNW,336,1.2,0.0,49,0.00,OVC,OVC,0.00,WeatherDisplay:10.37,2013-03-13 21:37:00,
2013-03-13 16:42:00,33.4,15.3,30.47,NNW,334,3.5,3.5,47,0.00,OVC,OVC,0.00,WeatherDisplay:10.37,2013-03-13 21:42:00,
2013-03-13 16:47:00,33.4,15.8,30.47,WNW,301,3.5,3.5,48,0.00,OVC,OVC,0.00,WeatherDisplay:10.37,2013-03-13 21:47:00,
2013-03-13 16:52:00,33.2,15.6,30.47,WNW,301,4.0,4.0,48,0.00,OVC,OVC,0.00,WeatherDisplay:10.37,2013-03-13 21:52:00,
2013-03-13 16:57:00,32.9,15.3,30.47,NW,304,3.5,3.5,48,0.00,OVC,OVC,0.00,WeatherDisplay:10.37,2013-03-13 21:57:00,
2013-03-13 17:02:00,32.7,16.5,30.46,NW,304,3.5,3.5,51,0.00,OVC,OVC,0.00,WeatherDisplay:10.37,2013-03-13 22:02:00,
2013-03-13 17:08:00,32.9,16.7,30.46,NW,305,0.0,0.0,51,0.00,OVC,OVC,0.00,WeatherDisplay:10.37,2013-03-13 22:08:00,
2013-03-13 17:13:00,32.8,16.6,30.45,NW,305,2.3,2.3,51,0.00,OVC,OVC,0.00,WeatherDisplay:10.37,2013-03-13 22:13:00,
2013-03-13 17:18:00,32.8,17.1,30.45,SSE,159,1.0,1.0,52,0.00,OVC,OVC,0.00,WeatherDisplay:10.37,2013-03-13 22:18:00,
2013-03-13 17:23:00,33.4,17.2,30.45,SSE,159,2.3,2.3,51,0.00,OVC,OVC,0.00,WeatherDisplay:10.37,2013-03-13 22:23:00,
2013-03-13 17:28:00,33.8,16.6,30.45,SSW,207,2.3,2.3,49,0.00,OVC,OVC,0.00,WeatherDisplay:10.37,2013-03-13 22:28:00,
2013-03-13 17:34:00,34.0,16.3,30.45,WSW,238,3.5,3.5,48,0.00,OVC,OVC,0.00,WeatherDisplay:10.37,2013-03-13 22:34:00,
2013-03-13 17:39:00,33.8,15.7,30.45,West,266,3.5,3.5,47,0.00,OVC,OVC,0.00,WeatherDisplay:10.37,2013-03-13 22:39:00,
2013-03-13 17:44:00,33.7,15.6,30.45,West,265,3.5,3.5,47,0.00,OVC,OVC,0.00,WeatherDisplay:10.37,2013-03-13 22:44:00,
2013-03-13 17:49:00,33.5,15.9,30.45,WSW,252,5.0,5.0,48,0.00,OVC,OVC,0.00,WeatherDisplay:10.37,2013-03-13 22:49:00,
2013-03-13 17:54:00,33.4,15.3,30.45,WSW,252,3.5,3.5,47,0.00,OVC,OVC,0.00,WeatherDisplay:10.37,2013-03-13 22:54:00,
2013-03-13 17:59:00,33.4,14.8,30.45,South,184,3.5,3.5,46,0.00,OVC,OVC,0.00,WeatherDisplay:10.37,2013-03-13 22:59:00,
2013-03-13 18:04:00,33.4,14.3,30.45,South,180,3.5,3.5,45,0.00,OVC,OVC,0.00,WeatherDisplay:10.37,2013-03-13 23:04:00,
2013-03-13 18:09:00,33.2,13.6,30.45,West,260,3.5,3.5,44,0.00,OVC,OVC,0.00,WeatherDisplay:10.37,2013-03-13 23:09:00,
2013-03-13 18:15:00,33.0,13.4,30.44,West,260,2.3,2.3,44,0.00,OVC,OVC,0.00,WeatherDisplay:10.37,2013-03-13 23:15:00,
2013-03-13 18:20:00,32.7,13.2,30.44,West,260,0.0,0.0,44,0.00,OVC,OVC,0.00,WeatherDisplay:10.37,2013-03-13 23:20:00,
2013-03-13 18:25:00,32.5,13.0,30.43,West,262,1.2,1.2,44,0.00,OVC,OVC,0.00,WeatherDisplay:10.37,2013-03-13 23:25:00,
2013-03-13 18:31:00,32.4,12.9,30.43,West,261,0.0,0.0,44,0.00,OVC,OVC,0.00,WeatherDisplay:10.37,2013-03-13 23:31:00,
2013-03-13 18:36:00,32.2,12.7,30.43,West,262,0.0,0.0,44,0.00,OVC,OVC,0.00,WeatherDisplay:10.37,2013-03-13 23:36:00,
2013-03-13 18:42:00,32.1,12.6,30.43,West,262,0.0,0.0,44,0.00,OVC,OVC,0.00,WeatherDisplay:10.37,2013-03-13 23:42:00,
2013-03-13 18:47:00,31.9,12.4,30.42,West,261,2.3,2.3,44,0.00,OVC,OVC,0.00,WeatherDisplay:10.37,2013-03-13 23:47:00,
2013-03-13 18:52:00,31.8,12.8,30.42,West,261,2.3,2.3,45,0.00,OVC,OVC,0.00,WeatherDisplay:10.37,2013-03-13 23:52:00,
2013-03-13 18:57:00,31.6,12.2,30.43,WSW,257,0.0,0.0,44,0.00,OVC,OVC,0.00,WeatherDisplay:10.37,2013-03-13 23:57:00,
2013-03-13 19:02:00,31.4,13.0,30.43,WSW,257,0.0,0.0,46,0.00,OVC,OVC,0.00,WeatherDisplay:10.37,2013-03-14 00:02:00,
2013-03-13 19:07:00,31.3,12.4,30.43,WSW,257,0.0,0.0,45,0.00,OVC,OVC,0.00,WeatherDisplay:10.37,2013-03-14 00:07:00,
2013-03-13 19:12:00,31.1,12.7,30.43,WSW,257,1.2,0.0,46,0.00,OVC,OVC,0.00,WeatherDisplay:10.37,2013-03-14 00:12:00,
2013-03-13 19:17:00,30.9,13.0,30.43,WSW,257,0.0,0.0,47,0.00,OVC,OVC,0.00,WeatherDisplay:10.37,2013-03-14 00:17:00,
2013-03-13 19:22:00,30.7,13.3,30.43,WSW,257,0.0,0.0,48,0.00,OVC,OVC,0.00,WeatherDisplay:10.37,2013-03-14 00:22:00,
2013-03-13 19:27:00,30.5,13.1,30.43,WSW,257,0.0,0.0,48,0.00,OVC,OVC,0.00,WeatherDisplay:10.37,2013-03-14 00:27:00,
2013-03-13 19:33:00,30.4,13.5,30.43,WSW,257,0.0,0.0,49,0.00,OVC,OVC,0.00,WeatherDisplay:10.37,2013-03-14 00:33:00,
2013-03-13 19:38:00,30.3,13.9,30.43,WSW,257,0.0,0.0,50,0.00,OVC,OVC,0.00,WeatherDisplay:10.37,2013-03-14 00:38:00,
2013-03-13 19:43:00,30.1,14.1,30.43,WSW,257,0.0,0.0,51,0.00,OVC,OVC,0.00,WeatherDisplay:10.37,2013-03-14 00:43:00,
2013-03-13 19:48:00,29.7,14.2,30.43,WSW,257,0.0,0.0,52,0.00,OVC,OVC,0.00,WeatherDisplay:10.37,2013-03-14 00:48:00,
2013-03-13 19:53:00,29.4,14.4,30.43,WSW,257,0.0,0.0,53,0.00,OVC,OVC,0.00,WeatherDisplay:10.37,2013-03-14 00:53:00,
2013-03-13 19:58:00,29.2,15.0,30.42,WSW,257,1.2,1.2,55,0.00,OVC,OVC,0.00,WeatherDisplay:10.37,2013-03-14 00:58:00,
2013-03-13 20:03:00,29.0,15.2,30.42,WSW,257,0.0,0.0,56,0.00,OVC,OVC,0.00,WeatherDisplay:10.37,2013-03-14 01:03:00,
2013-03-13 20:09:00,28.8,15.5,30.42,WSW,257,0.0,0.0,57,0.00,OVC,OVC,0.00,WeatherDisplay:10.37,2013-03-14 01:09:00,
2013-03-13 20:14:00,28.6,15.3,30.42,WSW,257,0.0,0.0,57,0.00,OVC,OVC,0.00,WeatherDisplay:10.37,2013-03-14 01:14:00,
2013-03-13 20:19:00,28.4,15.1,30.42,WSW,257,0.0,0.0,57,0.00,OVC,OVC,0.00,WeatherDisplay:10.37,2013-03-14 01:19:00,
2013-03-13 20:24:00,28.3,15.0,30.42,WSW,257,0.0,0.0,57,0.00,OVC,OVC,0.00,WeatherDisplay:10.37,2013-03-14 01:24:00,
2013-03-13 20:29:00,28.4,15.1,30.42,WSW,257,0.0,0.0,57,0.00,OVC,OVC,0.00,WeatherDisplay:10.37,2013-03-14 01:29:00,
2013-03-13 20:34:00,28.4,15.1,30.42,WSW,257,0.0,0.0,57,0.00,OVC,OVC,0.00,WeatherDisplay:10.37,2013-03-14 01:34:00,
2013-03-13 20:40:00,28.3,15.4,30.42,WSW,257,0.0,0.0,58,0.00,OVC,OVC,0.00,WeatherDisplay:10.37,2013-03-14 01:40:00,
2013-03-13 20:45:00,28.0,15.5,30.42,WSW,257,0.0,0.0,59,0.00,OVC,OVC,0.00,WeatherDisplay:10.37,2013-03-14 01:45:00,
2013-03-13 20:50:00,27.8,15.3,30.42,WSW,257,0.0,0.0,59,0.00,OVC,OVC,0.00,WeatherDisplay:10.37,2013-03-14 01:50:00,
2013-03-13 20:55:00,27.5,15.0,30.42,WSW,257,0.0,0.0,59,0.00,OVC,OVC,0.00,WeatherDisplay:10.37,2013-03-14 01:55:00,
2013-03-13 21:00:00,27.4,14.9,30.42,WSW,257,0.0,0.0,59,0.00,OVC,OVC,0.00,WeatherDisplay:10.37,2013-03-14 02:00:00,
2013-03-13 21:06:00,27.1,15.0,30.42,WSW,257,0.0,0.0,60,0.00,OVC,OVC,0.00,WeatherDisplay:10.37,2013-03-14 02:06:00,
2013-03-13 21:11:00,27.0,14.6,30.42,WSW,257,0.0,0.0,59,0.00,OVC,OVC,0.00,WeatherDisplay:10.37,2013-03-14 02:11:00,
2013-03-13 21:16:00,26.9,14.9,30.42,WSW,257,0.0,0.0,60,0.00,OVC,OVC,0.00,WeatherDisplay:10.37,2013-03-14 02:16:00,
2013-03-13 21:21:00,26.9,15.2,30.42,WSW,257,0.0,0.0,61,0.00,OVC,OVC,0.00,WeatherDisplay:10.37,2013-03-14 02:21:00,
2013-03-13 21:27:00,26.8,15.1,30.42,WSW,257,0.0,0.0,61,0.00,OVC,OVC,0.00,WeatherDisplay:10.37,2013-03-14 02:27:00,
2013-03-13 21:32:00,26.6,15.3,30.42,WSW,257,0.0,0.0,62,0.00,OVC,OVC,0.00,WeatherDisplay:10.37,2013-03-14 02:32:00,
2013-03-13 21:37:00,26.4,15.1,30.42,WSW,257,0.0,0.0,62,0.00,OVC,OVC,0.00,WeatherDisplay:10.37,2013-03-14 02:37:00,
2013-03-13 21:42:00,26.4,15.5,30.42,WSW,257,0.0,0.0,63,0.00,OVC,OVC,0.00,WeatherDisplay:10.37,2013-03-14 02:42:00,
2013-03-13 21:47:00,26.4,15.5,30.41,WSW,257,0.0,0.0,63,0.00,OVC,OVC,0.00,WeatherDisplay:10.37,2013-03-14 02:47:00,
2013-03-13 21:53:00,26.3,15.8,30.42,WSW,257,0.0,0.0,64,0.00,OVC,OVC,0.00,WeatherDisplay:10.37,2013-03-14 02:53:00,
2013-03-13 21:58:00,26.3,15.8,30.41,WSW,257,0.0,0.0,64,0.00,OVC,OVC,0.00,WeatherDisplay:10.37,2013-03-14 02:58:00,
2013-03-13 22:03:00,26.3,15.8,30.41,WSW,257,0.0,0.0,64,0.00,OVC,OVC,0.00,WeatherDisplay:10.37,2013-03-14 03:03:00,
2013-03-13 22:09:00,26.2,16.0,30.41,WSW,257,0.0,0.0,65,0.00,OVC,OVC,0.00,WeatherDisplay:10.37,2013-03-14 03:09:00,
2013-03-13 22:14:00,26.1,15.9,30.41,WSW,257,0.0,0.0,65,0.00,OVC,OVC,0.00,WeatherDisplay:10.37,2013-03-14 03:14:00,
2013-03-13 22:19:00,26.1,15.9,30.40,WSW,257,0.0,0.0,65,0.00,OVC,OVC,0.00,WeatherDisplay:10.37,2013-03-14 03:19:00,
2013-03-13 22:24:00,26.0,16.2,30.40,WSW,257,0.0,0.0,66,0.00,OVC,OVC,0.00,WeatherDisplay:10.37,2013-03-14 03:24:00,
2013-03-13 22:29:00,26.0,16.2,30.40,WSW,257,0.0,0.0,66,0.00,OVC,OVC,0.00,WeatherDisplay:10.37,2013-03-14 03:29:00,
2013-03-13 22:34:00,26.1,16.3,30.40,WSW,257,0.0,0.0,66,0.00,OVC,OVC,0.00,WeatherDisplay:10.37,2013-03-14 03:34:00,
2013-03-13 22:40:00,26.2,16.4,30.40,WSW,257,0.0,0.0,66,0.00,OVC,OVC,0.00,WeatherDisplay:10.37,2013-03-14 03:40:00,
2013-03-13 22:45:00,26.3,16.5,30.39,WSW,257,0.0,0.0,66,0.00,OVC,OVC,0.00,WeatherDisplay:10.37,2013-03-14 03:45:00,
2013-03-13 22:50:00,26.4,16.6,30.39,WSW,257,0.0,0.0,66,0.00,OVC,OVC,0.00,WeatherDisplay:10.37,2013-03-14 03:50:00,
2013-03-13 22:55:00,26.5,16.7,30.39,WSW,257,2.3,2.3,66,0.00,OVC,OVC,0.00,WeatherDisplay:10.37,2013-03-14 03:55:00,
2013-03-13 23:00:00,26.6,16.8,30.38,WSW,254,2.3,2.3,66,0.00,OVC,OVC,0.00,WeatherDisplay:10.37,2013-03-14 04:00:00,
2013-03-13 23:01:00,26.6,16.8,30.38,WSW,254,0.0,0.0,66,0.00,OVC,OVC,0.00,WeatherDisplay:10.37,2013-03-14 04:01:00,
2013-03-13 23:02:00,26.6,16.8,30.38,WSW,254,0.0,0.0,66,0.00,OVC,OVC,0.00,WeatherDisplay:10.37,2013-03-14 04:02:00,
2013-03-13 23:07:00,26.7,16.5,30.38,WSW,254,0.0,0.0,65,0.00,OVC,OVC,0.00,WeatherDisplay:10.37,2013-03-14 04:07:00,
2013-03-13 23:12:00,26.7,16.5,30.39,WSW,244,0.0,0.0,65,0.00,OVC,OVC,0.00,WeatherDisplay:10.37,2013-03-14 04:12:00,
2013-03-13 23:17:00,26.8,16.2,30.39,WSW,244,2.3,2.3,64,0.00,OVC,OVC,0.00,WeatherDisplay:10.37,2013-03-14 04:17:00,
2013-03-13 23:23:00,26.8,16.2,30.38,SW,214,2.3,2.3,64,0.00,OVC,OVC,0.00,WeatherDisplay:10.37,2013-03-14 04:23:00,
2013-03-13 23:28:00,26.9,16.0,30.39,SSE,165,1.2,0.0,63,0.00,OVC,OVC,0.00,WeatherDisplay:10.37,2013-03-14 04:28:00,
2013-03-13 23:33:00,27.0,16.1,30.39,SSE,165,1.2,1.2,63,0.00,OVC,OVC,0.00,WeatherDisplay:10.37,2013-03-14 04:33:00,
2013-03-13 23:38:00,27.1,15.8,30.39,SSE,164,3.5,3.5,62,0.00,OVC,OVC,0.00,WeatherDisplay:10.37,2013-03-14 04:38:00,
2013-03-13 23:43:00,27.2,15.9,30.39,SSE,163,2.3,2.3,62,0.00,OVC,OVC,0.00,WeatherDisplay:10.37,2013-03-14 04:43:00,
2013-03-13 23:49:00,27.4,15.7,30.38,SSE,163,3.5,3.5,61,0.00,OVC,OVC,0.00,WeatherDisplay:10.37,2013-03-14 04:49:00,
2013-03-13 23:54:00,27.4,15.7,30.38,SSE,163,0.0,0.0,61,0.00,OVC,OVC,0.00,WeatherDisplay:10.37,2013-03-14 04:54:00,
2013-03-13 23:59:00,27.4,15.7,30.38,SSE,163,0.0,0.0,61,0.00,OVC,OVC,0.00,WeatherDisplay:10.37,2013-03-14 04:59:00,